sat.trackr.live / text

‹ back to catalog

GEESAT-6 06

NORAD 65718 · 2025-214G

PAYLOAD ACTIVE UNKNOWN

§ Identity

Operator
Country
PRC
Launch date
2025-09-24
Launch site
YSLA
Launch vehicle
Mass (kg)
RCS (m²)

External: N2YO · Heavens-Above · Gunter

§ Orbital elements

Epoch: 2026-09-20T03:49:06.002400Z

Period
97.11 min
Inclination
49.9891°
Eccentricity
0.0008451
Mean motion
14.82876338 rev/d
Perigee alt
614.3 km
Apogee alt
626.2 km
Semi-major
6,998.4 km
B*
1.4237e-4
RAAN
226.2899°
Arg perigee
237.5619°
Mean anomaly
122.4503°
Rev number
5,363

§ Raw data

GEESAT-6 061 65718U 25214G   26263.15909725  .00000940  00000+0  14237-3 0  99902 65718  49.9891 226.2899 0008451 237.5619 122.4503 14.82876338 53632

JSON: /api/v1/satellites/65718 · /tle

For live sub-satellite position, see the globe view (requires WebGL).

§ Visibility from observer

Set your observer location to see the next 7 days of passes ≥ 10°. The values pass through the URL so the page stays shareable.

No JS? Fill the form by hand. The geolocation button needs JavaScript.